K8BCO Weather Reports


time (UTC)temp
C
wind
direction
speed
KPH
gust
KPH
rain 1hr
cm
rain 24hr
cm
rain mn
cm
humidity
%
barometer
mb
20260509212517 7 18 4.8 12.9 0.00 0.00 0.00 61 1006.2
20260509211518 7 13 4.8 14.5 0.00 0.00 0.00 61 1006.0
20260509210517 8 27 8.0 17.7 0.00 0.00 0.00 60 1005.9
20260509205517 8 25 6.4 14.5 0.00 0.00 0.00 57 1005.6
20260509204518 9 349 6.4 16.1 0.00 0.00 0.00 54 1005.5
20260509203517 8 13 6.4 14.5 0.00 0.00 0.00 55 1005.4
20260509202518 10 15 4.8 12.9 0.00 0.00 0.00 55 1005.3
20260509201518 10 28 6.4 16.1 0.00 0.00 0.00 54 1005.1
20260509200518 9 348 3.2 11.3 0.00 0.00 0.00 55 1005.0
20260509195519 8 8 8.0 16.1 0.00 0.00 0.00 56 1004.9
20260509194518 8 30 8.0 14.5 0.00 0.00 0.00 59 1004.7
20260509193518 7 341 6.4 16.1 0.00 0.00 0.00 64 1004.7
20260509192516 8 16 6.4 14.5 0.00 0.00 0.00 61 1004.6
20260509191516 8 343 8.0 16.1 0.00 0.00 0.00 64 1004.0
20260509190516 8 19 6.4 16.1 0.00 0.00 0.00 63 1003.6
20260509185516 9 30 8.0 16.1 0.00 0.00 0.00 56 1003.0
20260509184516 10 24 8.0 14.5 0.00 0.00 0.00 53 1002.7
20260509183516 10 352 8.0 16.1 0.00 0.00 0.00 51 1002.4
20260509182518 10 19 6.4 16.1 0.00 0.00 0.00 51 1002.1
20260509181517 11 13 8.0 17.7 0.00 0.00 0.00 49 1001.8
20260509180521 11 359 8.0 14.5 0.00 0.00 0.00 48 1001.6
20260509175517 11 17 6.4 16.1 0.00 0.00 0.00 47 1001.3
20260509174519 13 358 9.7 17.7 0.00 0.00 0.00 41 1001.0
20260509173517 13 16 8.0 20.9 0.00 0.00 0.00 41 1000.8
20260509172518 13 13 9.7 20.9 0.00 0.00 0.00 41 1000.7
20260509171518 12 18 8.0 17.7 0.00 0.00 0.00 41 1000.6
20260509170518 13 346 11.3 19.3 0.00 0.00 0.00 40 1000.3
20260509165518 12 9 9.7 16.1 0.00 0.00 0.00 39 1000.3
20260509164518 12 353 9.7 24.1 0.00 0.00 0.00 38 1000.2
20260509163518 12 341 8.0 17.7 0.00 0.00 0.00 39 999.8
20260509162519 12 301 9.7 19.3 0.00 0.00 0.00 38 999.7
20260509161516 12 344 8.0 14.5 0.00 0.00 0.00 39 999.5
20260509160516 12 18 6.4 17.7 0.00 0.00 0.00 39 999.4
20260509155516 12 319 9.7 22.5 0.00 0.00 0.00 39 999.1
20260509154517 11 308 6.4 14.5 0.00 0.00 0.00 40 999.2
20260509153516 11 4 9.7 29.0 0.00 0.00 0.00 40 999.1
20260509152516 11 7 4.8 11.3 0.00 0.00 0.00 41 999.0
20260509151518 11 21 6.4 20.9 0.00 0.00 0.00 40 998.8
20260509150517 11 320 6.4 22.5 0.00 0.00 0.00 39 998.7
20260509145517 12 7 8.0 14.5 0.00 0.00 0.00 39 998.7
20260509144517 12 330 6.4 14.5 0.00 0.00 0.00 39 998.3
20260509143518 12 222 4.8 14.5 0.00 0.00 0.00 41 998.2
20260509142517 12 322 8.0 29.0 0.00 0.00 0.00 41 998.1
20260509141518 12 33 6.4 14.5 0.00 0.00 0.00 41 998.0
20260509140518 12 319 8.0 19.3 0.00 0.00 0.00 41 997.9
20260509135518 12 359 8.0 22.5 0.00 0.00 0.00 42 997.8
20260509134518 11 345 4.8 19.3 0.00 0.00 0.00 44 997.9
20260509133518 11 14 6.4 14.5 0.00 0.00 0.00 45 997.8
20260509132519 10 335 4.8 19.3 0.00 0.00 0.00 47 997.9
20260509131515 10 270 3.2 11.3 0.00 0.00 0.00 49 997.9
20260509130516 10 208 3.2 9.7 0.00 0.00 0.00 50 997.8
20260509125516 10 291 4.8 14.5 0.00 0.00 0.00 50 997.7
20260509124520 11 316 4.8 12.9 0.00 0.00 0.00 50 997.5
20260509123516 11 331 4.8 12.9 0.00 0.00 0.00 50 997.3
20260509122516 10 38 4.8 14.5 0.00 0.00 0.00 51 997.4
20260509121520 10 32 4.8 11.3 0.00 0.00 0.00 54 997.4
20260509120516 9 306 3.2 6.4 0.00 0.00 0.00 58 997.5
20260509115516 7 308 3.2 6.4 0.00 0.00 0.00 63 997.4
20260509114517 6 268 1.6 4.8 0.00 0.00 0.00 71 997.3
20260509113517 5 271 1.6 3.2 0.00 0.00 0.00 77 997.3
20260509112517 5 137 0.0 1.6 0.00 0.00 0.00 77 997.2
20260509111517 5 0.0 0.0 0.00 0.00 0.00 78 997.3
20260509110517 6 0.0 0.0 0.00 0.00 0.00 76 997.2
20260509105517 6 202 1.6 3.2 0.00 0.00 0.00 77 997.1
20260509104517 6 270 1.6 4.8 0.00 0.00 0.00 73 997.4
20260509103517 6 245 0.0 4.8 0.00 0.00 0.00 74 997.5
20260509102518 6 290 0.0 1.6 0.00 0.00 0.00 76 997.6
20260509101518 6 122 0.0 0.0 0.00 0.00 0.00 76 997.6
20260509100532 6 291 0.0 3.2 0.00 0.00 0.00 75 997.4
20260509095518 6 333 0.0 1.6 0.00 0.00 0.00 76 997.2
20260509094518 5 30 0.0 3.2 0.00 0.00 0.00 76 997.1
20260509093519 5 283 1.6 3.2 0.00 0.00 0.00 77 996.9
20260509092519 5 222 0.0 1.6 0.00 0.00 0.00 77 996.9
20260509091519 5 233 0.0 3.2 0.00 0.00 0.00 76 996.9
20260509090519 6 272 0.0 3.2 0.00 0.00 0.00 77 997.0
20260509085520 6 317 1.6 6.4 0.00 0.00 0.00 73 997.1
20260509084520 5 189 1.6 6.4 0.00 0.00 0.00 77 997.3
20260509083518 5 200 0.0 3.2 0.00 0.00 0.00 76 997.5
20260509082517 5 334 1.6 4.8 0.00 0.00 0.00 77 997.3
20260509081518 5 353 1.6 3.2 0.00 0.00 0.00 79 996.9
20260509080518 4 234 1.6 4.8 0.00 0.00 0.00 78 996.9
20260509075518 4 250 1.6 3.2 0.00 0.00 0.00 79 996.9
20260509074518 4 198 0.0 3.2 0.00 0.00 0.00 77 996.9
20260509073518 4 162 1.6 3.2 0.00 0.00 0.00 77 997.1
20260509072515 4 118 0.0 3.2 0.00 0.00 0.00 78 997.3
20260509071518 3 162 0.0 1.6 0.00 0.00 0.00 79 997.4
20260509070516 3 197 1.6 3.2 0.00 0.00 0.00 77 997.7
20260509065516 3 9 0.0 3.2 0.00 0.00 0.00 79 997.8
20260509064516 3 223 1.6 4.8 0.00 0.00 0.00 78 997.9
20260509063516 3 62 0.0 1.6 0.00 0.00 0.00 76 998.3
20260509062516 4 159 0.0 3.2 0.00 0.00 0.00 75 998.5
20260509061517 4 89 0.0 1.6 0.00 0.00 0.00 74 998.5
20260509060517 4 143 3.2 4.8 0.00 0.00 0.00 73 998.6
20260509055517 4 173 0.0 3.2 0.00 0.00 0.00 72 998.9
20260509054517 4 145 1.6 4.8 0.00 0.00 0.00 71 999.0
20260509053518 4 140 3.2 6.4 0.00 0.00 0.00 72 999.2
20260509052517 4 174 1.6 4.8 0.00 0.00 0.00 71 999.4
20260509051518 5 153 1.6 4.8 0.00 0.00 0.00 69 999.5
20260509050518 5 127 3.2 4.8 0.00 0.00 0.00 67 999.6
20260509045518 5 148 1.6 3.2 0.00 0.00 0.00 65 999.9
20260509044518 6 131 0.0 3.2 0.00 0.00 0.00 63 1000.1
20260509043518 6 187 1.6 3.2 0.00 0.00 0.00 63 1000.3
20260509042518 6 215 0.0 3.2 0.00 0.00 0.00 61 1000.4
20260509041518 6 193 1.6 3.2 0.00 0.00 0.00 60 1000.7
20260509040533 6 234 0.0 3.2 0.00 0.00 0.00 62 1000.8
20260509035516 6 198 0.0 3.2 0.00 0.00 0.00 65 1001.0
20260509034516 6 202 0.0 1.6 0.00 0.00 0.00 66 1001.2
20260509033516 6 206 1.6 3.2 0.00 0.00 0.00 64 1001.3
20260509032525 6 154 0.0 1.6 0.00 0.00 0.00 63 1001.5
20260509031521 6 148 1.6 4.8 0.00 0.00 0.00 63 1001.6
20260509030517 6 219 0.0 1.6 0.00 0.00 0.00 63 1001.7
20260509025521 6 135 0.0 0.0 0.00 0.00 0.00 65 1001.8
20260509024517 6 199 0.0 1.6 0.00 0.00 0.00 61 1001.8
20260509023518 6 211 0.0 3.2 0.00 0.00 0.00 60 1001.9
20260509022518 7 139 0.0 3.2 0.00 0.00 0.00 61 1001.9
20260509021517 7 163 1.6 4.8 0.00 0.00 0.00 60 1002.0
20260509020519 7 252 1.6 3.2 0.00 0.00 0.00 58 1002.1
20260509015523 8 250 0.0 3.2 0.00 0.00 0.00 55 1001.8
20260509014518 8 162 0.0 1.6 0.00 0.00 0.00 55 1001.9
20260509013518 8 211 1.6 3.2 0.00 0.03 0.00 55 1002.2
20260509012518 8 179 0.0 1.6 0.00 0.03 0.00 52 1002.3
20260509011520 9 131 0.0 4.8 0.00 0.03 0.00 51 1002.4
20260509010518 9 213 1.6 3.2 0.00 0.03 0.00 51 1002.6
20260509005516 9 137 0.0 3.2 0.00 0.03 0.00 51 1002.7
20260509004515 10 0.0 0.0 0.00 0.03 0.00 49 1002.8
20260509003516 10 282 1.6 3.2 0.00 0.03 0.00 46 1002.9
20260509002516 10 158 0.0 3.2 0.00 0.03 0.00 47 1002.6
20260509001516 10 0.0 0.0 0.00 0.03 0.00 46 1002.6
20260509000517 10 115 0.0 3.2 0.00 0.03 0.00 46 1002.6
20260508235517 11 21 1.6 3.2 0.00 0.03 0.00 43 1002.7
20260508234517 11 108 0.0 4.8 0.00 0.03 0.00 44 1002.7
20260508233517 11 118 1.6 4.8 0.00 0.03 0.00 43 1002.7
20260508232517 11 144 3.2 8.0 0.00 0.03 0.00 41 1002.7
20260508231518 11 123 3.2 8.0 0.00 0.03 0.00 41 1002.8
20260508230518 11 189 1.6 4.8 0.00 0.03 0.00 42 1002.8
20260508225518 11 146 1.6 6.4 0.00 0.03 0.00 41 1002.8
20260508224519 11 180 1.6 6.4 0.00 0.03 0.00 40 1002.9
20260508223518 11 163 1.6 6.4 0.00 0.03 0.00 40 1003.0
20260508222518 11 78 3.2 9.7 0.00 0.03 0.00 41 1003.1
20260508221516 12 179 1.6 4.8 0.00 0.03 0.00 40 1003.2
20260508220516 12 144 3.2 6.4 0.00 0.03 0.00 40 1003.2
20260508215518 12 127 3.2 9.7 0.00 0.03 0.00 40 1003.2
20260508214516 12 119 4.8 8.0 0.00 0.03 0.00 38 1003.2
20260508213516 12 71 1.6 6.4 0.00 0.03 0.00 39 1003.3